| time (UTC) | temp C | wind direction | speed KPH | gust KPH | rain 1hr cm | rain 24hr cm | rain mn cm | humidity % | barometer mb |
| 20260507145044 | 13 | 250 | 11.3 | 14.5 | 0.00 | 0.00 | 0.00 | 56 | 1018.8 |
| 20260507144540 | 13 | 250 | 6.4 | 9.7 | 0.00 | 0.00 | 0.00 | 59 | 1018.8 |
| 20260507144038 | 13 | 250 | 6.4 | 12.9 | 0.00 | 0.00 | 0.00 | 57 | 1019.0 |
| 20260507143535 | 13 | 250 | 4.8 | 8.0 | 0.00 | 0.00 | 0.00 | 57 | 1018.7 |
| 20260507143033 | 13 | 250 | 0.0 | 0.0 | 0.00 | 0.00 | 0.00 | 63 | 1018.9 |
| 20260507142527 | 12 | 250 | 8.0 | 11.3 | 0.00 | 0.00 | 0.00 | 60 | 1019.0 |
| 20260507142025 | 12 | 250 | 0.0 | 0.0 | 0.00 | 0.00 | 0.00 | 64 | 1018.8 |
| 20260507141521 | 12 | 250 | 6.4 | 11.3 | 0.00 | 0.00 | 0.00 | 62 | 1018.9 |
| 20260507141017 | 12 | 250 | 3.2 | 4.8 | 0.00 | 0.00 | 0.00 | 66 | 1019.1 |
| 20260507140514 | 11 | 250 | 0.0 | 0.0 | 0.00 | 0.00 | 0.00 | 67 | 1019.1 |
| 20260507140012 | 11 | 250 | 0.0 | 0.0 | 0.00 | 0.00 | 0.00 | 69 | 1019.0 |
| 20260507135509 | 11 | 250 | 0.0 | 0.0 | 0.00 | 0.00 | 0.00 | 72 | 1019.0 |
| 20260507135006 | 10 | 250 | 0.0 | 0.0 | 0.00 | 0.00 | 0.00 | 72 | 1019.1 |
| 20260507134502 | 10 | 250 | 0.0 | 0.0 | 0.00 | 0.00 | 0.00 | 75 | 1019.2 |
| 20260507133958 | 10 | 250 | 0.0 | 0.0 | 0.00 | 0.00 | 0.00 | 79 | 1019.2 |
| 20260507133454 | 8 | 250 | 0.0 | 0.0 | 0.00 | 0.00 | 0.00 | 85 | 1019.4 |
| 20260507132953 | 8 | 250 | 0.0 | 0.0 | 0.00 | 0.00 | 0.00 | 90 | 1019.3 |
| 20260507132449 | 7 | 250 | 0.0 | 0.0 | 0.00 | 0.00 | 0.00 | 94 | 1019.2 |
| 20260507131945 | 7 | 250 | 0.0 | 0.0 | 0.00 | 0.00 | 0.00 | 97 | 1019.3 |
| 20260507131442 | 7 | 250 | 0.0 | 0.0 | 0.00 | 0.00 | 0.00 | 97 | 1019.3 |
| 20260507130939 | 7 | 250 | 0.0 | 0.0 | 0.00 | 0.00 | 0.00 | 98 | 1019.4 |
| 20260507130436 | 6 | 250 | 0.0 | 0.0 | 0.00 | 0.00 | 0.00 | 98 | 1019.5 |
| 20260507125935 | 6 | 250 | 0.0 | 0.0 | 0.00 | 0.00 | 0.00 | 98 | 1019.4 |
| 20260507125432 | 6 | 250 | 0.0 | 0.0 | 0.00 | 0.00 | 0.00 | 98 | 1019.6 |
| 20260507124930 | 6 | 250 | 0.0 | 0.0 | 0.00 | 0.00 | 0.00 | 98 | 1019.6 |
| 20260507124426 | 5 | 250 | 0.0 | 0.0 | 0.00 | 0.00 | 0.00 | 98 | 1019.4 |
| 20260507123924 | 5 | 250 | 0.0 | 0.0 | 0.00 | 0.00 | 0.00 | 98 | 1019.5 |
| 20260507123422 | 5 | 250 | 0.0 | 0.0 | 0.00 | 0.00 | 0.00 | 98 | 1019.4 |
| 20260507122918 | 5 | 250 | 0.0 | 0.0 | 0.00 | 0.00 | 0.00 | 98 | 1019.5 |
| 20260507122413 | 5 | 250 | 0.0 | 0.0 | 0.00 | 0.00 | 0.00 | 98 | 1019.2 |
| 20260507121909 | 4 | 250 | 0.0 | 0.0 | 0.00 | 0.00 | 0.00 | 98 | 1019.2 |
| 20260507121405 | 4 | 250 | 0.0 | 0.0 | 0.00 | 0.00 | 0.00 | 98 | 1019.3 |
| 20260507120902 | 3 | 250 | 0.0 | 0.0 | 0.00 | 0.00 | 0.00 | 98 | 1019.0 |
| 20260507120358 | 3 | 250 | 0.0 | 0.0 | 0.00 | 0.00 | 0.00 | 98 | 1019.0 |
| 20260507115854 | 2 | 250 | 0.0 | 0.0 | 0.00 | 0.00 | 0.00 | 98 | 1019.2 |
| 20260507115350 | 2 | 250 | 0.0 | 0.0 | 0.00 | 0.00 | 0.00 | 98 | 1019.1 |
| 20260507114846 | 2 | 250 | 0.0 | 0.0 | 0.00 | 0.00 | 0.00 | 98 | 1019.0 |
| 20260507114343 | 2 | 250 | 0.0 | 0.0 | 0.00 | 0.00 | 0.00 | 98 | 1019.0 |
| 20260507113841 | 2 | 250 | 0.0 | 0.0 | 0.00 | 0.00 | 0.00 | 98 | 1018.9 |
| 20260507113338 | 2 | 250 | 0.0 | 0.0 | 0.00 | 0.00 | 0.00 | 98 | 1018.8 |
| 20260507112835 | 2 | 250 | 0.0 | 0.0 | 0.00 | 0.00 | 0.00 | 98 | 1018.9 |
| 20260507112332 | 2 | 250 | 0.0 | 0.0 | 0.00 | 0.00 | 0.00 | 98 | 1018.8 |
| 20260507111830 | 2 | 250 | 0.0 | 0.0 | 0.00 | 0.00 | 0.00 | 98 | 1018.6 |
| 20260507111326 | 2 | 250 | 0.0 | 0.0 | 0.00 | 0.00 | 0.00 | 98 | 1018.5 |
| 20260507110822 | 2 | 250 | 0.0 | 0.0 | 0.00 | 0.00 | 0.00 | 98 | 1018.5 |
| 20260507110319 | 2 | 250 | 0.0 | 0.0 | 0.00 | 0.00 | 0.00 | 98 | 1018.5 |
| 20260507105816 | 2 | 250 | 0.0 | 0.0 | 0.00 | 0.00 | 0.00 | 97 | 1018.8 |
| 20260507105312 | 2 | 250 | 0.0 | 0.0 | 0.00 | 0.00 | 0.00 | 97 | 1018.8 |
| 20260507104809 | 2 | 250 | 0.0 | 0.0 | 0.00 | 0.00 | 0.00 | 97 | 1018.8 |
| 20260507104306 | 2 | 250 | 0.0 | 0.0 | 0.00 | 0.00 | 0.00 | 97 | 1018.6 |
| 20260507103802 | 2 | 250 | 0.0 | 0.0 | 0.00 | 0.00 | 0.00 | 97 | 1019.0 |
| 20260507103258 | 2 | 250 | 0.0 | 0.0 | 0.00 | 0.00 | 0.00 | 97 | 1018.9 |
| 20260507102755 | 2 | 250 | 0.0 | 0.0 | 0.00 | 0.00 | 0.00 | 97 | 1019.0 |
| 20260507102251 | 2 | 250 | 0.0 | 0.0 | 0.00 | 0.00 | 0.00 | 97 | 1019.1 |
| 20260507101748 | 2 | 250 | 0.0 | 0.0 | 0.00 | 0.00 | 0.00 | 97 | 1018.8 |
| 20260507101243 | 2 | 250 | 0.0 | 0.0 | 0.00 | 0.00 | 0.00 | 97 | 1019.0 |
| 20260507100740 | 2 | 250 | 0.0 | 0.0 | 0.00 | 0.00 | 0.00 | 97 | 1019.0 |
| 20260507100238 | 2 | 250 | 0.0 | 0.0 | 0.00 | 0.00 | 0.00 | 97 | 1019.1 |
| 20260507095736 | 2 | 250 | 0.0 | 0.0 | 0.00 | 0.00 | 0.00 | 97 | 1019.1 |
| 20260507095232 | 2 | 250 | 0.0 | 0.0 | 0.00 | 0.00 | 0.00 | 97 | 1019.3 |
| 20260507094729 | 2 | 250 | 0.0 | 0.0 | 0.00 | 0.00 | 0.00 | 97 | 1019.3 |
| 20260507094226 | 2 | 250 | 0.0 | 0.0 | 0.00 | 0.00 | 0.00 | 97 | 1019.1 |
| 20260507093723 | 2 | 250 | 0.0 | 0.0 | 0.00 | 0.00 | 0.00 | 97 | 1019.1 |
| 20260507093221 | 2 | 250 | 0.0 | 0.0 | 0.00 | 0.00 | 0.00 | 97 | 1019.2 |
| 20260507092719 | 3 | 250 | 0.0 | 0.0 | 0.00 | 0.00 | 0.00 | 97 | 1019.0 |
| 20260507092215 | 3 | 250 | 0.0 | 0.0 | 0.00 | 0.00 | 0.00 | 97 | 1019.0 |
| 20260507091711 | 3 | 250 | 0.0 | 0.0 | 0.00 | 0.00 | 0.00 | 97 | 1018.9 |
| 20260507091208 | 3 | 250 | 0.0 | 0.0 | 0.00 | 0.00 | 0.00 | 97 | 1019.2 |
| 20260507090703 | 3 | 250 | 0.0 | 0.0 | 0.00 | 0.00 | 0.00 | 97 | 1019.1 |
| 20260507090200 | 3 | 250 | 0.0 | 0.0 | 0.00 | 0.00 | 0.00 | 97 | 1019.1 |
| 20260507085657 | 3 | 250 | 0.0 | 0.0 | 0.00 | 0.00 | 0.00 | 97 | 1019.0 |
| 20260507085154 | 3 | 250 | 0.0 | 0.0 | 0.00 | 0.00 | 0.00 | 97 | 1019.0 |
| 20260507084651 | 3 | 250 | 0.0 | 0.0 | 0.00 | 0.00 | 0.00 | 97 | 1019.0 |
| 20260507084148 | 3 | 250 | 0.0 | 0.0 | 0.00 | 0.00 | 0.00 | 97 | 1018.9 |
| 20260507083644 | 3 | 250 | 0.0 | 0.0 | 0.00 | 0.00 | 0.00 | 97 | 1018.7 |
| 20260507083141 | 3 | 250 | 0.0 | 0.0 | 0.00 | 0.00 | 0.00 | 97 | 1019.0 |
| 20260507082637 | 3 | 250 | 0.0 | 0.0 | 0.00 | 0.00 | 0.00 | 97 | 1019.0 |
| 20260507082134 | 3 | 250 | 0.0 | 0.0 | 0.00 | 0.00 | 0.00 | 97 | 1018.9 |
| 20260507081631 | 3 | 250 | 0.0 | 0.0 | 0.00 | 0.00 | 0.00 | 97 | 1018.9 |
| 20260507081127 | 3 | 250 | 0.0 | 0.0 | 0.00 | 0.00 | 0.00 | 97 | 1019.1 |
| 20260507080623 | 3 | 250 | 0.0 | 0.0 | 0.00 | 0.00 | 0.00 | 97 | 1019.2 |
| 20260507080120 | 3 | 250 | 0.0 | 0.0 | 0.00 | 0.00 | 0.00 | 97 | 1019.0 |
| 20260507075614 | 3 | 250 | 0.0 | 0.0 | 0.00 | 0.00 | 0.00 | 97 | 1019.1 |
| 20260507075111 | 4 | 250 | 0.0 | 0.0 | 0.00 | 0.00 | 0.00 | 97 | 1019.1 |
| 20260507074608 | 4 | 250 | 0.0 | 0.0 | 0.00 | 0.00 | 0.00 | 97 | 1019.1 |
| 20260507074106 | 4 | 250 | 0.0 | 0.0 | 0.00 | 0.00 | 0.00 | 97 | 1019.1 |
| 20260507073602 | 4 | 250 | 0.0 | 0.0 | 0.00 | 0.00 | 0.00 | 96 | 1019.0 |
| 20260507073058 | 5 | 250 | 0.0 | 0.0 | 0.00 | 0.00 | 0.00 | 96 | 1018.9 |
| 20260507072556 | 5 | 250 | 0.0 | 0.0 | 0.00 | 0.00 | 0.00 | 96 | 1019.2 |
| 20260507072053 | 5 | 250 | 0.0 | 0.0 | 0.00 | 0.00 | 0.00 | 96 | 1019.1 |
| 20260507071551 | 5 | 250 | 0.0 | 0.0 | 0.00 | 0.00 | 0.00 | 96 | 1019.2 |
| 20260507071047 | 5 | 250 | 0.0 | 0.0 | 0.00 | 0.00 | 0.00 | 96 | 1019.3 |
| 20260507070544 | 5 | 250 | 0.0 | 0.0 | 0.00 | 0.00 | 0.00 | 96 | 1019.5 |
| 20260507070041 | 5 | 250 | 0.0 | 0.0 | 0.00 | 0.00 | 0.00 | 96 | 1019.4 |
| 20260507065537 | 5 | 250 | 0.0 | 0.0 | 0.00 | 0.00 | 0.00 | 96 | 1019.2 |
| 20260507065035 | 5 | 250 | 0.0 | 0.0 | 0.00 | 0.00 | 0.00 | 96 | 1019.5 |
| 20260507064532 | 5 | 250 | 0.0 | 0.0 | 0.00 | 0.00 | 0.00 | 96 | 1019.7 |
| 20260507064031 | 5 | 250 | 0.0 | 0.0 | 0.00 | 0.00 | 0.00 | 96 | 1019.6 |
| 20260507063527 | 5 | 250 | 0.0 | 0.0 | 0.00 | 0.00 | 0.00 | 96 | 1019.5 |
| 20260507063025 | 5 | 250 | 0.0 | 0.0 | 0.00 | 0.00 | 0.00 | 96 | 1019.5 |
| 20260507062521 | 4 | 250 | 0.0 | 0.0 | 0.00 | 0.00 | 0.00 | 96 | 1019.7 |
| 20260507062019 | 4 | 250 | 0.0 | 0.0 | 0.00 | 0.00 | 0.00 | 96 | 1019.6 |
| 20260507061517 | 4 | 250 | 0.0 | 0.0 | 0.00 | 0.00 | 0.00 | 95 | 1019.8 |
| 20260507061015 | 3 | 250 | 0.0 | 0.0 | 0.00 | 0.00 | 0.00 | 95 | 1019.9 |
| 20260507060512 | 3 | 250 | 0.0 | 0.0 | 0.00 | 0.00 | 0.00 | 95 | 1019.9 |
| 20260507060009 | 3 | 250 | 0.0 | 0.0 | 0.00 | 0.00 | 0.00 | 95 | 1019.9 |
| 20260507055503 | 3 | 250 | 0.0 | 0.0 | 0.00 | 0.00 | 0.00 | 95 | 1019.8 |
| 20260507055000 | 3 | 250 | 0.0 | 0.0 | 0.00 | 0.00 | 0.00 | 95 | 1019.7 |
| 20260507054456 | 3 | 250 | 0.0 | 0.0 | 0.00 | 0.00 | 0.00 | 95 | 1019.8 |
| 20260507053954 | 3 | 250 | 0.0 | 0.0 | 0.00 | 0.00 | 0.00 | 95 | 1019.5 |
| 20260507053451 | 3 | 250 | 0.0 | 0.0 | 0.00 | 0.00 | 0.00 | 95 | 1019.6 |
| 20260507052949 | 3 | 250 | 0.0 | 0.0 | 0.00 | 0.00 | 0.00 | 95 | 1019.7 |
| 20260507052447 | 3 | 250 | 0.0 | 0.0 | 0.00 | 0.00 | 0.00 | 95 | 1019.8 |
| 20260507051943 | 3 | 250 | 0.0 | 0.0 | 0.00 | 0.00 | 0.00 | 95 | 1019.7 |
| 20260507051441 | 3 | 250 | 0.0 | 0.0 | 0.00 | 0.00 | 0.00 | 95 | 1019.6 |
| 20260507050938 | 3 | 250 | 0.0 | 0.0 | 0.00 | 0.00 | 0.00 | 94 | 1019.6 |
| 20260507050434 | 3 | 250 | 0.0 | 0.0 | 0.00 | 0.00 | 0.00 | 94 | 1019.7 |
| 20260507045931 | 3 | 250 | 0.0 | 0.0 | 0.00 | 0.13 | 0.13 | 94 | 1019.7 |
| 20260507045428 | 4 | 250 | 0.0 | 0.0 | 0.00 | 0.13 | 0.13 | 94 | 1019.8 |
| 20260507044925 | 4 | 250 | 0.0 | 0.0 | 0.00 | 0.13 | 0.13 | 94 | 1019.8 |
| 20260507044422 | 4 | 250 | 0.0 | 0.0 | 0.00 | 0.13 | 0.13 | 94 | 1019.7 |
| 20260507043918 | 4 | 250 | 0.0 | 0.0 | 0.00 | 0.13 | 0.13 | 94 | 1019.6 |
| 20260507043414 | 4 | 250 | 0.0 | 0.0 | 0.00 | 0.13 | 0.13 | 94 | 1019.7 |
| 20260507042911 | 4 | 250 | 0.0 | 0.0 | 0.00 | 0.13 | 0.13 | 94 | 1019.7 |
| 20260507042407 | 4 | 250 | 0.0 | 0.0 | 0.00 | 0.13 | 0.13 | 94 | 1020.0 |
| 20260507041903 | 4 | 250 | 0.0 | 0.0 | 0.00 | 0.13 | 0.13 | 93 | 1019.9 |
| 20260507041400 | 4 | 250 | 0.0 | 0.0 | 0.00 | 0.13 | 0.13 | 93 | 1019.7 |
| 20260507040857 | 4 | 250 | 0.0 | 0.0 | 0.00 | 0.13 | 0.13 | 93 | 1020.0 |
| 20260507040353 | 5 | 250 | 0.0 | 0.0 | 0.00 | 0.13 | 0.13 | 93 | 1019.8 |
| 20260507035849 | 5 | 250 | 0.0 | 0.0 | 0.00 | 0.13 | 0.13 | 93 | 1020.0 |
| 20260507035345 | 5 | 250 | 0.0 | 0.0 | 0.00 | 0.13 | 0.13 | 93 | 1019.9 |
| 20260507034843 | 5 | 250 | 0.0 | 0.0 | 0.00 | 0.13 | 0.13 | 92 | 1020.1 |
| 20260507034339 | 5 | 250 | 0.0 | 0.0 | 0.00 | 0.13 | 0.13 | 92 | 1019.9 |
| 20260507033837 | 5 | 250 | 0.0 | 0.0 | 0.00 | 0.13 | 0.13 | 92 | 1020.0 |
| 20260507033335 | 5 | 250 | 0.0 | 0.0 | 0.00 | 0.13 | 0.13 | 92 | 1019.9 |
| 20260507032832 | 5 | 250 | 0.0 | 0.0 | 0.00 | 0.13 | 0.13 | 92 | 1019.9 |
| 20260507032328 | 5 | 250 | 0.0 | 0.0 | 0.00 | 0.13 | 0.13 | 91 | 1019.7 |
| 20260507031825 | 5 | 250 | 0.0 | 0.0 | 0.00 | 0.13 | 0.13 | 91 | 1019.7 |
| 20260507031322 | 5 | 250 | 0.0 | 0.0 | 0.00 | 0.13 | 0.13 | 91 | 1019.4 |
| 20260507030818 | 5 | 250 | 0.0 | 0.0 | 0.00 | 0.13 | 0.13 | 91 | 1019.8 |
| 20260507030316 | 5 | 250 | 0.0 | 0.0 | 0.00 | 0.13 | 0.13 | 90 | 1019.8 |
| 20260507025812 | 5 | 250 | 0.0 | 0.0 | 0.00 | 0.13 | 0.13 | 90 | 1019.9 |
| 20260507025310 | 5 | 250 | 0.0 | 0.0 | 0.00 | 0.13 | 0.13 | 90 | 1019.7 |
| 20260507024808 | 5 | 250 | 0.0 | 0.0 | 0.00 | 0.13 | 0.13 | 90 | 1019.8 |
| 20260507024304 | 6 | 250 | 0.0 | 0.0 | 0.00 | 0.13 | 0.13 | 89 | 1019.6 |
| 20260507023800 | 6 | 250 | 0.0 | 0.0 | 0.00 | 0.13 | 0.13 | 89 | 1019.5 |
| 20260507023257 | 6 | 250 | 0.0 | 0.0 | 0.00 | 0.13 | 0.13 | 89 | 1019.4 |
| 20260507022754 | 6 | 250 | 0.0 | 0.0 | 0.00 | 0.13 | 0.13 | 88 | 1019.4 |
| 20260507022251 | 6 | 250 | 0.0 | 0.0 | 0.00 | 0.13 | 0.13 | 88 | 1019.3 |
| 20260507021747 | 6 | 250 | 0.0 | 0.0 | 0.00 | 0.13 | 0.13 | 87 | 1019.1 |
| 20260507021242 | 6 | 250 | 0.0 | 0.0 | 0.00 | 0.13 | 0.13 | 87 | 1019.4 |
| 20260507020741 | 6 | 250 | 0.0 | 0.0 | 0.00 | 0.13 | 0.13 | 86 | 1019.4 |
| 20260507020237 | 7 | 250 | 0.0 | 0.0 | 0.00 | 0.13 | 0.13 | 86 | 1019.1 |
| 20260507015734 | 7 | 250 | 0.0 | 0.0 | 0.00 | 0.13 | 0.13 | 85 | 1019.2 |
| 20260507015232 | 7 | 250 | 0.0 | 0.0 | 0.00 | 0.13 | 0.13 | 85 | 1019.1 |
| 20260507014728 | 7 | 250 | 0.0 | 0.0 | 0.00 | 0.13 | 0.13 | 84 | 1018.8 |
| 20260507014225 | 7 | 250 | 0.0 | 0.0 | 0.00 | 0.13 | 0.13 | 83 | 1019.1 |
| 20260507013721 | 7 | 250 | 0.0 | 0.0 | 0.00 | 0.13 | 0.13 | 82 | 1018.9 |
| 20260507013219 | 8 | 250 | 0.0 | 0.0 | 0.00 | 0.13 | 0.13 | 81 | 1018.8 |
| 20260507012716 | 8 | 250 | 0.0 | 0.0 | 0.00 | 0.13 | 0.13 | 80 | 1018.8 |
| 20260507012211 | 8 | 250 | 0.0 | 0.0 | 0.00 | 0.13 | 0.13 | 78 | 1018.7 |
| 20260507011709 | 9 | 250 | 0.0 | 0.0 | 0.00 | 0.13 | 0.13 | 76 | 1019.0 |
| 20260507011206 | 10 | 250 | 0.0 | 0.0 | 0.00 | 0.13 | 0.13 | 73 | 1018.8 |
| 20260507010705 | 10 | 250 | 0.0 | 0.0 | 0.00 | 0.13 | 0.13 | 69 | 1018.5 |
| 20260507010201 | 11 | 250 | 0.0 | 0.0 | 0.00 | 0.13 | 0.13 | 66 | 1018.6 |
| 20260507005659 | 11 | 250 | 0.0 | 0.0 | 0.00 | 0.13 | 0.13 | 61 | 1018.6 |
| 20260507005155 | 13 | 250 | 0.0 | 0.0 | 0.00 | 0.13 | 0.13 | 58 | 1018.4 |
| 20260507004652 | 13 | 250 | 0.0 | 0.0 | 0.00 | 0.13 | 0.13 | 53 | 1018.7 |
| 20260507004149 | 14 | 250 | 0.0 | 0.0 | 0.00 | 0.13 | 0.13 | 45 | 1018.5 |
| 20260507003646 | 14 | 250 | 0.0 | 0.0 | 0.00 | 0.13 | 0.13 | 44 | 1018.7 |
| 20260507003145 | 15 | 250 | 0.0 | 0.0 | 0.00 | 0.13 | 0.13 | 42 | 1018.4 |
| 20260507002642 | 15 | 250 | 1.6 | 1.6 | 0.00 | 0.13 | 0.13 | 41 | 1018.5 |
| 20260507002138 | 15 | 250 | 0.0 | 0.0 | 0.00 | 0.13 | 0.13 | 45 | 1018.4 |
| 20260507001635 | 15 | 250 | 0.0 | 3.2 | 0.00 | 0.13 | 0.13 | 41 | 1018.5 |
| 20260507001133 | 15 | 250 | 0.0 | 0.0 | 0.00 | 0.13 | 0.13 | 42 | 1018.3 |
| 20260507000629 | 15 | 250 | 0.0 | 0.0 | 0.00 | 0.13 | 0.13 | 43 | 1018.3 |
| 20260507000124 | 15 | 250 | 0.0 | 0.0 | 0.00 | 0.13 | 0.13 | 40 | 1018.3 |
| 20260506235622 | 15 | 250 | 0.0 | 0.0 | 0.00 | 0.13 | 0.13 | 41 | 1018.4 |
| 20260506235122 | 15 | 250 | 0.0 | 3.2 | 0.00 | 0.13 | 0.13 | 41 | 1018.3 |
| 20260506234619 | 15 | 250 | 1.6 | 3.2 | 0.00 | 0.13 | 0.13 | 39 | 1018.5 |
| 20260506234116 | 15 | 250 | 0.0 | 0.0 | 0.00 | 0.13 | 0.13 | 39 | 1018.5 |
| 20260506233613 | 15 | 250 | 1.6 | 3.2 | 0.00 | 0.13 | 0.13 | 41 | 1018.1 |
| 20260506233110 | 15 | 250 | 1.6 | 1.6 | 0.00 | 0.13 | 0.13 | 40 | 1018.2 |
| 20260506232606 | 16 | 250 | 3.2 | 4.8 | 0.00 | 0.13 | 0.13 | 37 | 1018.2 |
| 20260506232102 | 16 | 250 | 0.0 | 1.6 | 0.00 | 0.13 | 0.13 | 39 | 1018.3 |
| 20260506231559 | 16 | 250 | 0.0 | 1.6 | 0.00 | 0.13 | 0.13 | 40 | 1018.3 |
| 20260506231058 | 16 | 250 | 0.0 | 0.0 | 0.00 | 0.13 | 0.13 | 41 | 1018.3 |
| 20260506230553 | 16 | 250 | 1.6 | 3.2 | 0.00 | 0.13 | 0.13 | 38 | 1018.6 |
| 20260506230051 | 16 | 250 | 3.2 | 4.8 | 0.00 | 0.13 | 0.13 | 38 | 1018.4 |
| 20260506225548 | 16 | 250 | 3.2 | 3.2 | 0.00 | 0.13 | 0.13 | 37 | 1018.4 |
| 20260506225044 | 16 | 249 | 3.2 | 4.8 | 0.00 | 0.13 | 0.13 | 39 | 1018.4 |
| 20260506224541 | 16 | 246 | 0.0 | 0.0 | 0.00 | 0.13 | 0.13 | 41 | 1018.4 |
| 20260506224038 | 16 | 242 | 3.2 | 3.2 | 0.00 | 0.13 | 0.13 | 37 | 1018.5 |
| 20260506223533 | 16 | 243 | 0.0 | 0.0 | 0.00 | 0.13 | 0.13 | 37 | 1018.4 |
| 20260506223030 | 16 | 243 | 3.2 | 4.8 | 0.00 | 0.13 | 0.13 | 39 | 1018.4 |
| 20260506222527 | 16 | 239 | 4.8 | 8.0 | 0.00 | 0.13 | 0.13 | 37 | 1018.5 |
| 20260506222023 | 16 | 232 | 4.8 | 4.8 | 0.00 | 0.13 | 0.13 | 38 | 1018.6 |
| 20260506221521 | 16 | 228 | 0.0 | 1.6 | 0.00 | 0.13 | 0.13 | 43 | 1018.3 |
| 20260506221019 | 16 | 226 | 1.6 | 3.2 | 0.00 | 0.13 | 0.13 | 42 | 1018.6 |
| 20260506220514 | 16 | 223 | 8.0 | 11.3 | 0.00 | 0.13 | 0.13 | 40 | 1018.4 |
| 20260506220010 | 16 | 222 | 1.6 | 3.2 | 0.00 | 0.13 | 0.13 | 45 | 1018.3 |
| 20260506215508 | 16 | 218 | 8.0 | 9.7 | 0.00 | 0.13 | 0.13 | 37 | 1018.7 |
| 20260506215003 | 16 | 213 | 3.2 | 3.2 | 0.00 | 0.13 | 0.13 | 42 | 1018.7 |
| 20260506214500 | 15 | 209 | 1.6 | 3.2 | 0.00 | 0.13 | 0.13 | 42 | 1018.6 |
| 20260506213957 | 15 | 198 | 9.7 | 12.9 | 0.00 | 0.13 | 0.13 | 40 | 1018.7 |
| 20260506213455 | 16 | 183 | 8.0 | 11.3 | 0.00 | 0.13 | 0.13 | 36 | 1018.6 |
| 20260506212952 | 16 | 180 | 0.0 | 0.0 | 0.00 | 0.13 | 0.13 | 41 | 1018.9 |
| 20260506212448 | 16 | 180 | 0.0 | 0.0 | 0.00 | 0.13 | 0.13 | 40 | 1018.6 |
| 20260506211943 | 15 | 184 | 3.2 | 3.2 | 0.00 | 0.13 | 0.13 | 44 | 1019.1 |
| 20260506211439 | 16 | 179 | 4.8 | 8.0 | 0.00 | 0.13 | 0.13 | 41 | 1018.8 |
| 20260506210937 | 16 | 176 | 0.0 | 0.0 | 0.00 | 0.13 | 0.13 | 40 | 1018.7 |
| 20260506210433 | 15 | 172 | 8.0 | 12.9 | 0.00 | 0.13 | 0.13 | 42 | 1018.7 |
| 20260506205931 | 15 | 168 | 1.6 | 3.2 | 0.00 | 0.13 | 0.13 | 39 | 1018.9 |
| 20260506205426 | 16 | 162 | 3.2 | 11.3 | 0.00 | 0.13 | 0.13 | 40 | 1018.8 |
| 20260506204922 | 16 | 160 | 0.0 | 1.6 | 0.00 | 0.13 | 0.13 | 42 | 1019.1 |
| 20260506204421 | 16 | 160 | 1.6 | 1.6 | 0.00 | 0.13 | 0.13 | 39 | 1018.9 |
| 20260506203918 | 16 | 160 | 1.6 | 1.6 | 0.00 | 0.13 | 0.13 | 41 | 1019.1 |
| 20260506203415 | 16 | 160 | 8.0 | 9.7 | 0.00 | 0.13 | 0.13 | 43 | 1019.0 |
| 20260506202912 | 16 | 160 | 0.0 | 0.0 | 0.00 | 0.13 | 0.13 | 45 | 1019.2 |
| 20260506202409 | 15 | 160 | 4.8 | 11.3 | 0.00 | 0.13 | 0.13 | 44 | 1019.3 |
| 20260506201905 | 16 | 160 | 0.0 | 1.6 | 0.00 | 0.13 | 0.13 | 49 | 1019.5 |
| 20260506201403 | 16 | 160 | 1.6 | 3.2 | 0.00 | 0.13 | 0.13 | 43 | 1019.5 |
| 20260506200859 | 15 | 160 | 0.0 | 1.6 | 0.00 | 0.13 | 0.13 | 39 | 1019.3 |
| 20260506200355 | 15 | 160 | 8.0 | 9.7 | 0.00 | 0.13 | 0.13 | 41 | 1019.3 |
| 20260506195852 | 15 | 160 | 4.8 | 8.0 | 0.00 | 0.13 | 0.13 | 46 | 1019.6 |
| 20260506195349 | 15 | 160 | 3.2 | 4.8 | 0.00 | 0.13 | 0.13 | 44 | 1019.8 |
| 20260506194846 | 16 | 160 | 1.6 | 3.2 | 0.00 | 0.13 | 0.13 | 46 | 1019.6 |
| 20260506194343 | 15 | 160 | 1.6 | 1.6 | 0.00 | 0.13 | 0.13 | 46 | 1019.6 |
| 20260506193840 | 16 | 160 | 4.8 | 8.0 | 0.00 | 0.13 | 0.13 | 43 | 1019.4 |
| 20260506193337 | 16 | 160 | 1.6 | 3.2 | 0.00 | 0.13 | 0.13 | 45 | 1019.7 |
| 20260506192833 | 15 | 160 | 1.6 | 4.8 | 0.00 | 0.13 | 0.13 | 45 | 1019.5 |
| 20260506192330 | 15 | 160 | 6.4 | 9.7 | 0.00 | 0.13 | 0.13 | 40 | 1019.6 |
| 20260506191827 | 15 | 160 | 8.0 | 11.3 | 0.00 | 0.13 | 0.13 | 42 | 1020.0 |
| 20260506191323 | 15 | 160 | 6.4 | 8.0 | 0.00 | 0.13 | 0.13 | 46 | 1019.9 |
| 20260506190820 | 15 | 160 | 0.0 | 0.0 | 0.00 | 0.13 | 0.13 | 47 | 1019.6 |
| 20260506190317 | 15 | 160 | 1.6 | 1.6 | 0.00 | 0.13 | 0.13 | 43 | 1020.0 |
| 20260506185814 | 15 | 160 | 4.8 | 8.0 | 0.00 | 0.13 | 0.13 | 47 | 1020.0 |
| 20260506185311 | 15 | 160 | 0.0 | 0.0 | 0.00 | 0.13 | 0.13 | 45 | 1019.9 |
| 20260506184808 | 14 | 160 | 0.0 | 0.0 | 0.00 | 0.13 | 0.13 | 46 | 1020.1 |
| 20260506184305 | 14 | 160 | 6.4 | 9.7 | 0.00 | 0.13 | 0.13 | 38 | 1020.0 |
| 20260506183802 | 15 | 160 | 1.6 | 1.6 | 0.00 | 0.13 | 0.13 | 43 | 1020.0 |
| 20260506183257 | 15 | 160 | 0.0 | 1.6 | 0.00 | 0.13 | 0.13 | 47 | 1020.0 |
| 20260506182754 | 15 | 160 | 9.7 | 12.9 | 0.00 | 0.13 | 0.13 | 43 | 1020.2 |
| 20260506182251 | 15 | 160 | 1.6 | 3.2 | 0.00 | 0.13 | 0.13 | 47 | 1020.2 |
| 20260506181749 | 15 | 160 | 4.8 | 8.0 | 0.00 | 0.13 | 0.13 | 45 | 1020.0 |
| 20260506181247 | 15 | 160 | 8.0 | 11.3 | 0.00 | 0.13 | 0.13 | 39 | 1020.0 |
| 20260506180744 | 14 | 160 | 4.8 | 4.8 | 0.00 | 0.13 | 0.13 | 42 | 1020.2 |
| 20260506180239 | 15 | 160 | 0.0 | 1.6 | 0.00 | 0.13 | 0.13 | 45 | 1020.3 |
| 20260506175736 | 14 | 160 | 1.6 | 4.8 | 0.00 | 0.13 | 0.13 | 47 | 1020.3 |
| 20260506175233 | 15 | 160 | 6.4 | 9.7 | 0.00 | 0.13 | 0.13 | 43 | 1020.4 |
| 20260506174731 | 15 | 160 | 6.4 | 9.7 | 0.00 | 0.13 | 0.13 | 44 | 1020.2 |
| 20260506174227 | 15 | 160 | 3.2 | 3.2 | 0.00 | 0.13 | 0.13 | 52 | 1020.6 |
| 20260506173725 | 14 | 160 | 0.0 | 0.0 | 0.00 | 0.13 | 0.13 | 44 | 1020.6 |
| 20260506173222 | 14 | 160 | 6.4 | 8.0 | 0.00 | 0.13 | 0.13 | 49 | 1020.4 |
| 20260506172719 | 14 | 160 | 3.2 | 3.2 | 0.00 | 0.13 | 0.13 | 51 | 1020.4 |
| 20260506172215 | 14 | 160 | 11.3 | 12.9 | 0.00 | 0.13 | 0.13 | 48 | 1020.4 |
| 20260506171713 | 14 | 160 | 6.4 | 11.3 | 0.00 | 0.13 | 0.13 | 48 | 1020.6 |
| 20260506171210 | 15 | 160 | 8.0 | 9.7 | 0.00 | 0.13 | 0.13 | 46 | 1020.4 |
| 20260506170708 | 15 | 160 | 0.0 | 0.0 | 0.00 | 0.13 | 0.13 | 51 | 1020.4 |
| 20260506170204 | 14 | 160 | 0.0 | 0.0 | 0.00 | 0.13 | 0.13 | 47 | 1020.5 |
| 20260506165703 | 14 | 160 | 11.3 | 14.5 | 0.00 | 0.13 | 0.13 | 44 | 1020.5 |
| 20260506165159 | 13 | 160 | 6.4 | 11.3 | 0.00 | 0.13 | 0.13 | 47 | 1020.6 |
| 20260506164656 | 13 | 160 | 4.8 | 4.8 | 0.00 | 0.13 | 0.13 | 47 | 1020.5 |
| 20260506164153 | 14 | 160 | 8.0 | 9.7 | 0.00 | 0.13 | 0.13 | 48 | 1020.5 |
| 20260506163650 | 14 | 160 | 0.0 | 1.6 | 0.00 | 0.13 | 0.13 | 55 | 1020.3 |
| 20260506163145 | 14 | 160 | 3.2 | 4.8 | 0.00 | 0.13 | 0.13 | 48 | 1020.2 |
| 20260506162641 | 13 | 160 | 4.8 | 8.0 | 0.00 | 0.13 | 0.13 | 58 | 1020.2 |
| 20260506162139 | 13 | 160 | 11.3 | 12.9 | 0.00 | 0.13 | 0.13 | 55 | 1020.0 |
| 20260506161636 | 13 | 160 | 3.2 | 4.8 | 0.00 | 0.13 | 0.13 | 58 | 1019.9 |
| 20260506161133 | 13 | 160 | 3.2 | 3.2 | 0.00 | 0.13 | 0.13 | 58 | 1019.7 |
| 20260506160630 | 13 | 160 | 0.0 | 0.0 | 0.00 | 0.13 | 0.13 | 56 | 1019.7 |
| 20260506160126 | 13 | 160 | 0.0 | 0.0 | 0.00 | 0.13 | 0.13 | 64 | 1019.9 |
| 20260506155626 | 12 | 160 | 0.0 | 0.0 | 0.00 | 0.13 | 0.13 | 66 | 1019.7 |
| 20260506155122 | 12 | 160 | 1.6 | 3.2 | 0.00 | 0.13 | 0.13 | 70 | 1019.6 |
| 20260506153224 | 11 | 160 | 0.0 | 0.0 | 0.00 | 0.13 | 0.13 | 66 | 1019.7 |
| 20260506152721 | 11 | 160 | 6.4 | 11.3 | 0.00 | 0.13 | 0.13 | 70 | 1019.7 |
| 20260506152219 | 12 | 160 | 1.6 | 3.2 | 0.00 | 0.13 | 0.13 | 71 | 1020.0 |
| 20260506151718 | 11 | 160 | 3.2 | 4.8 | 0.00 | 0.13 | 0.13 | 70 | 1019.7 |
| 20260506151214 | 11 | 160 | 0.0 | 1.6 | 0.00 | 0.13 | 0.13 | 70 | 1019.8 |
| 20260506150710 | 11 | 160 | 4.8 | 8.0 | 0.00 | 0.13 | 0.13 | 72 | 1019.7 |
| 20260506150207 | 11 | 160 | 0.0 | 0.0 | 0.00 | 0.13 | 0.13 | 72 | 1019.6 |
| 20260506145704 | 11 | 160 | 3.2 | 9.7 | 0.00 | 0.13 | 0.13 | 70 | 1019.9 |